Junction City, KY

2:47 AM EST on February 12, 2016 (GMT -0500)
Powell

Weather History for KDVK - May, 2013

Change the Weather History Date:

Friday, May 24, 2013

  Actual Average (KLEX) Record (KLEX)
Temperature  
Mean Temperature 56 °F 66 °F  
Max Temperature 64 °F 77 °F 93 °F (1939)
Min Temperature 46 °F 56 °F 37 °F (1925)
Degree Days  
Heating Degree Days 9 2  
Month to date heating degree days 99  
Since 1 July heating degree days 4588  
Cooling Degree Days 0 4  
Month to date cooling degree days 53  
Year to date cooling degree days 75  
Growing Degree Days 6 (Base 50)    
Moisture  
Dew Point 45 °F    
Average Humidity 69    
Maximum Humidity 94    
Minimum Humidity 45    
Precipitation  
Precipitation 0.00 in 0.16 in 1.95 in (1966)
Month to date precipitation 4.03  
Year to date precipitation 18.10  
Snow  
Snow 0.00 in 0.00 in - ()
Month to date snowfall 0.0  
Since 1 July snowfall 13.0  
Snow Depth -    
Sea Level Pressure  
Sea Level Pressure 30.25 in    
Wind  
Wind Speed 9 mph (NNE)    
Max Wind Speed 15 mph    
Max Gust Speed 21 mph    
Visibility 10 miles    
Events Rain    
T = Trace of Precipitation, MM = Missing Value Source: NWS Daily Summary

Daily Weather History Graph

Daily Weather History Graph

Search for Another Location

Airport or City:

Trip Planner

Search our weather history database for the weather conditions in past years. The results will help you decide how hot, cold, wet, or windy it might be!

Date:

Astronomy

May. 24, 2013 Rise Set
Actual Time 6:23 AM EDT 8:49 PM EDT
Civil Twilight 5:53 AM EDT 9:19 PM EDT
Nautical Twilight 5:15 AM EDT 9:56 PM EDT
Astronomical Twilight 4:35 AM EDT 10:37 PM EDT
Moon 8:30 PM EDT (5/24) 5:53 AM EDT (5/24)
Length of Visible Light 15h 26m
Length of Day
14h 26m
Full, 100% of the Moon is Illuminated
May 24
Full
May 25
Full
May 31
Last Quarter
Jun 8
New
Jun 16
First Quarter

Hourly Weather History & Observations

Time (EDT) Temp. Dew Point Humidity Pressure Visibility Wind Dir Wind Speed Gust Speed Precip Events Conditions
12:15 AM 57.2 °F 55.4 °F 94% 30.07 in 5.0 mi North 10.4 mph - N/A Rain Rain
12:35 AM 55.4 °F 53.6 °F 94% 30.07 in 5.0 mi North 12.7 mph - N/A   Light Drizzle
12:55 AM 53.6 °F 51.8 °F 94% 30.08 in 7.0 mi North 12.7 mph - N/A   Overcast
1:15 AM 53.6 °F 51.8 °F 94% 30.09 in 7.0 mi North 10.4 mph - N/A   Overcast
1:35 AM 53.6 °F 51.8 °F 94% 30.10 in 10.0 mi North 13.8 mph 19.6 mph N/A   Overcast
1:55 AM 53.6 °F 50.0 °F 88% 30.10 in 10.0 mi North 11.5 mph 18.4 mph N/A   Overcast
2:15 AM 53.6 °F 50.0 °F 88% 30.11 in 10.0 mi North 15.0 mph 20.7 mph N/A   Overcast
2:35 AM 51.8 °F 50.0 °F 94% 30.12 in 10.0 mi NNW 9.2 mph 16.1 mph N/A   Overcast
2:55 AM 51.8 °F 48.2 °F 88% 30.13 in 10.0 mi North 13.8 mph 19.6 mph N/A   Overcast
3:15 AM 51.8 °F 46.4 °F 82% 30.13 in 10.0 mi North 9.2 mph 19.6 mph N/A   Overcast
3:35 AM 51.8 °F 46.4 °F 82% 30.14 in 10.0 mi North 11.5 mph 19.6 mph N/A   Overcast
3:55 AM 51.8 °F 46.4 °F 82% 30.15 in 10.0 mi North 12.7 mph 17.3 mph N/A   Overcast
4:15 AM 51.8 °F 44.6 °F 76% 30.16 in 10.0 mi North 11.5 mph 19.6 mph N/A   Overcast
4:35 AM 50.0 °F 44.6 °F 82% 30.17 in 10.0 mi North 11.5 mph 17.3 mph N/A   Overcast
4:55 AM 50.0 °F 44.6 °F 82% 30.18 in 10.0 mi North 9.2 mph 16.1 mph N/A   Overcast
5:15 AM 50.0 °F 44.6 °F 82% 30.18 in 10.0 mi North 12.7 mph 16.1 mph N/A   Overcast
5:35 AM 50.0 °F 44.6 °F 82% 30.19 in 10.0 mi North 6.9 mph - N/A   Overcast
5:55 AM 50.0 °F 44.6 °F 82% 30.20 in 10.0 mi NNE 12.7 mph 19.6 mph N/A   Overcast
6:15 AM 50.0 °F 42.8 °F 76% 30.21 in 10.0 mi NNE 15.0 mph 18.4 mph N/A   Overcast
6:35 AM 50.0 °F 42.8 °F 76% 30.22 in 10.0 mi NNE 10.4 mph 18.4 mph N/A   Overcast
6:55 AM 50.0 °F 42.8 °F 76% 30.22 in 10.0 mi NE 6.9 mph 16.1 mph N/A   Overcast
7:15 AM 48.2 °F 42.8 °F 82% 30.24 in 10.0 mi NE 5.8 mph - N/A   Scattered Clouds
7:35 AM 48.2 °F 42.8 °F 82% 30.24 in 10.0 mi NE 4.6 mph - N/A   Clear
7:55 AM 50.0 °F 42.8 °F 76% 30.24 in 10.0 mi NNE 4.6 mph - N/A   Scattered Clouds
8:15 AM 50.0 °F 42.8 °F 76% 30.25 in 10.0 mi NNE 8.1 mph - N/A   Scattered Clouds
8:35 AM 51.8 °F 42.8 °F 71% 30.26 in 10.0 mi ENE 9.2 mph - N/A   Clear
8:55 AM 51.8 °F 42.8 °F 71% 30.27 in 10.0 mi NE 12.7 mph - N/A   Mostly Cloudy
9:15 AM 51.8 °F 44.6 °F 76% 30.28 in 10.0 mi NE 10.4 mph 16.1 mph N/A   Overcast
9:35 AM 51.8 °F 42.8 °F 71% 30.29 in 10.0 mi NNE 9.2 mph 16.1 mph N/A   Overcast
9:55 AM 53.6 °F 44.6 °F 72% 30.30 in 10.0 mi NE 10.4 mph - N/A   Mostly Cloudy
10:15 AM 53.6 °F 42.8 °F 67% 30.31 in 10.0 mi NNE 9.2 mph - N/A   Mostly Cloudy
10:35 AM 53.6 °F 42.8 °F 67% 30.32 in 10.0 mi NNE 6.9 mph - N/A   Overcast
10:55 AM 53.6 °F 44.6 °F 72% 30.32 in 10.0 mi North 8.1 mph - N/A   Overcast
11:15 AM 53.6 °F 42.8 °F 67% 30.32 in 10.0 mi North 9.2 mph - N/A   Overcast
11:35 AM 55.4 °F 42.8 °F 63% 30.32 in 10.0 mi NNW 8.1 mph - N/A   Mostly Cloudy
11:55 AM 57.2 °F 42.8 °F 59% 30.33 in 10.0 mi NE 9.2 mph - N/A   Scattered Clouds
12:15 PM 59.0 °F 44.6 °F 59% 30.33 in 10.0 mi North 10.4 mph - N/A   Mostly Cloudy
12:35 PM 59.0 °F 46.4 °F 63% 30.33 in 10.0 mi NNW 9.2 mph - N/A   Mostly Cloudy
1:15 PM 60.8 °F 44.6 °F 55% 30.33 in 10.0 mi North 9.2 mph - N/A   Scattered Clouds
1:35 PM 60.8 °F 44.6 °F 55% 30.33 in 10.0 mi NNE 9.2 mph - N/A   Scattered Clouds
1:55 PM 60.8 °F 42.8 °F 52% 30.32 in 10.0 mi NNW 8.1 mph - N/A   Mostly Cloudy
2:15 PM 62.6 °F 44.6 °F 52% 30.32 in 10.0 mi NNE 9.2 mph - N/A   Scattered Clouds
2:35 PM 62.6 °F 44.6 °F 52% 30.32 in 10.0 mi NNE 13.8 mph 18.4 mph N/A   Scattered Clouds
2:55 PM 62.6 °F 44.6 °F 52% 30.31 in 10.0 mi NNE 9.2 mph - N/A   Clear
3:15 PM 62.6 °F 44.6 °F 52% 30.31 in 10.0 mi ENE 10.4 mph 16.1 mph N/A   Clear
3:35 PM 62.6 °F 44.6 °F 52% 30.31 in 10.0 mi North 8.1 mph - N/A   Scattered Clouds
3:55 PM 64.4 °F 42.8 °F 45% 30.32 in 10.0 mi NNE 8.1 mph - N/A   Scattered Clouds
4:15 PM 64.4 °F 44.6 °F 49% 30.31 in 10.0 mi North 12.7 mph - N/A   Clear
4:35 PM 64.4 °F 44.6 °F 49% 30.32 in 10.0 mi North 6.9 mph - N/A   Clear
4:55 PM 64.4 °F 44.6 °F 49% 30.31 in 10.0 mi NNE 10.4 mph - N/A   Clear
5:15 PM 64.4 °F 44.6 °F 49% 30.31 in 10.0 mi North 8.1 mph - N/A   Scattered Clouds
5:35 PM 64.4 °F 42.8 °F 45% 30.31 in 10.0 mi Calm Calm - N/A   Scattered Clouds
5:55 PM 64.4 °F 44.6 °F 49% 30.31 in 10.0 mi North 5.8 mph - N/A   Scattered Clouds
6:15 PM 64.4 °F 42.8 °F 45% 30.30 in 10.0 mi North 3.5 mph - N/A   Clear
6:35 PM 64.4 °F 42.8 °F 45% 30.30 in 10.0 mi NNE 9.2 mph - N/A   Clear
6:55 PM 62.6 °F 42.8 °F 48% 30.29 in 10.0 mi North 4.6 mph - N/A   Clear
7:15 PM 62.6 °F 44.6 °F 52% 30.29 in 10.0 mi NNE 6.9 mph - N/A   Clear
7:35 PM 62.6 °F 42.8 °F 48% 30.28 in 10.0 mi NNE 6.9 mph - N/A   Clear
7:55 PM 60.8 °F 44.6 °F 55% 30.28 in 10.0 mi NNE 4.6 mph - N/A   Clear
8:15 PM 60.8 °F 42.8 °F 52% 30.28 in 10.0 mi NE 3.5 mph - N/A   Clear
8:35 PM 59.0 °F 44.6 °F 59% 30.28 in 10.0 mi ENE 3.5 mph - N/A   Clear
8:55 PM 55.4 °F 44.6 °F 67% 30.28 in 10.0 mi Calm Calm - N/A   Clear
9:15 PM 53.6 °F 44.6 °F 72% 30.28 in 10.0 mi Calm Calm - N/A   Clear
9:35 PM 53.6 °F 44.6 °F 72% 30.28 in 10.0 mi Calm Calm - N/A   Clear
9:55 PM 51.8 °F 44.6 °F 76% 30.28 in 10.0 mi Calm Calm - N/A   Clear
10:15 PM 51.8 °F 44.6 °F 76% 30.29 in 10.0 mi Calm Calm - N/A   Clear
10:35 PM 51.8 °F 46.4 °F 82% 30.30 in 10.0 mi Calm Calm - N/A   Clear
10:55 PM 50.0 °F 44.6 °F 82% 30.31 in 10.0 mi Calm Calm - N/A   Clear
11:15 PM 50.0 °F 44.6 °F 82% 30.32 in 10.0 mi Calm Calm - N/A   Clear
11:35 PM 48.2 °F 44.6 °F 87% 30.33 in 10.0 mi Calm Calm - N/A   Clear
11:55 PM 46.4 °F 44.6 °F 93% 30.33 in 10.0 mi Calm Calm - N/A   Clear